When you browse on this site, cookies collect data to enhance your experience and personalize the content and advertising you see.
Visit our Privacy Policy to learn more. By continuing to use the site, you agree to this use of cookies and data.
  • In Czech Republic
  • List of Countries
  • For 7 days
  • Water Temperature
  • Weather Map
  • Weather Widgets
  • user-avatar
    Login

    Hourly Weather Vetas

    Today, 21 November, Thursday

    Time Temperature Precipitation Wind Pressure Humidity
    00:00 +4°C° 0 mm 0 mps 492 mmHg 96%
    01:00 +3°C° 0 mm 0 mps 492 mmHg 96%
    02:00 +3°C° 0 mm 0 mps 492 mmHg 95%
    03:00 +3°C° 0 mm 0 mps 491 mmHg 95%
    04:00 +3°C° 0 mm 0 mps 491 mmHg 95%
    05:00 +3°C° 0 mm 0 mps 492 mmHg 94%
    06:00 +4°C° 0 mm 0 mps 493 mmHg 92%
    07:00 +4°C° 0 mm 0 mps 493 mmHg 91%
    08:00 +7°C° 0.1 mm 1 mps 494 mmHg 85%
    09:00 +9°C° 0.1 mm 1 mps 496 mmHg 80%
    10:00 +10°C° 0.1 mm 1 mps 497 mmHg 74%
    11:00 +10°C° 0.4 mm 1 mps 496 mmHg 78%
    12:00 +8°C° 0.4 mm 2 mps 495 mmHg 83%
    13:00 +8°C° 0.4 mm 2 mps 494 mmHg 87%
    14:00 +8°C° 0.5 mm 1 mps 493 mmHg 90%
    15:00 +8°C° 0.5 mm 1 mps 493 mmHg 92%
    16:00 +7°C° 0.5 mm 1 mps 492 mmHg 95%
    17:00 +7°C° 0.4 mm 1 mps 492 mmHg 95%
    18:00 +6°C° 0.4 mm 1 mps 492 mmHg 96%
    19:00 +5°C° 0.4 mm 1 mps 492 mmHg 96%
    20:00 +5°C° 0.3 mm 1 mps 492 mmHg 95%
    21:00 +4°C° 0.3 mm 1 mps 492 mmHg 93%
    22:00 +4°C° 0.3 mm 1 mps 492 mmHg 92%
    23:00 +4°C° 0 mm 1 mps 492 mmHg 92%

    Tomorrow, 22 November, Friday

    Time Temperature Precipitation Wind Pressure Humidity
    00:00 +3°C° 0 mm 1 mps 491 mmHg 92%
    01:00 +3°C° 0 mm 1 mps 491 mmHg 91%
    02:00 +3°C° 0 mm 1 mps 490 mmHg 91%
    03:00 +3°C° 0 mm 1 mps 490 mmHg 91%
    04:00 +2°C° 0 mm 1 mps 490 mmHg 91%
    05:00 +3°C° 0 mm 1 mps 491 mmHg 89%
    06:00 +3°C° 0 mm 0 mps 492 mmHg 87%
    07:00 +4°C° 0 mm 0 mps 493 mmHg 84%
    08:00 +7°C° 0 mm 1 mps 494 mmHg 80%
    09:00 +9°C° 0 mm 1 mps 495 mmHg 75%
    10:00 +10°C° 0 mm 2 mps 497 mmHg 70%
    11:00 +9°C° 0.7 mm 2 mps 496 mmHg 76%
    12:00 +8°C° 0.7 mm 2 mps 495 mmHg 83%
    13:00 +9°C° 0.7 mm 1 mps 493 mmHg 89%
    14:00 +8°C° 0.7 mm 1 mps 493 mmHg 90%
    15:00 +8°C° 0.7 mm 1 mps 493 mmHg 91%
    16:00 +8°C° 0.7 mm 1 mps 492 mmHg 92%
    17:00 +7°C° 0.3 mm 1 mps 492 mmHg 94%
    18:00 +6°C° 0.3 mm 1 mps 492 mmHg 95%
    19:00 +4°C° 0.3 mm 0 mps 491 mmHg 97%
    20:00 +4°C° 0.4 mm 1 mps 491 mmHg 95%
    21:00 +4°C° 0.4 mm 1 mps 491 mmHg 93%
    22:00 +4°C° 0.4 mm 1 mps 492 mmHg 91%
    23:00 +4°C° 0.2 mm 1 mps 491 mmHg 90%

    Day after tomorrow, 23 November, Saturday

    Time Temperature Precipitation Wind Pressure Humidity
    00:00 +4°C° 0.2 mm 1 mps 491 mmHg 89%
    01:00 +3°C° 0.2 mm 0 mps 491 mmHg 89%
    02:00 +3°C° 0.1 mm 0 mps 491 mmHg 89%
    03:00 +3°C° 0.1 mm 1 mps 490 mmHg 89%
    04:00 +3°C° 0.1 mm 1 mps 490 mmHg 90%
    05:00 +3°C° 0.1 mm 0 mps 491 mmHg 87%
    06:00 +4°C° 0.1 mm 0 mps 492 mmHg 85%
    07:00 +5°C° 0.1 mm 0 mps 493 mmHg 83%
    08:00 +7°C° 0.1 mm 1 mps 494 mmHg 78%
    09:00 +9°C° 0.1 mm 1 mps 496 mmHg 73%
    10:00 +9°C° 0.1 mm 2 mps 497 mmHg 69%
    11:00 +9°C° 0.4 mm 2 mps 496 mmHg 75%
    12:00 +8°C° 0.4 mm 2 mps 495 mmHg 81%
    13:00 +8°C° 0.4 mm 2 mps 494 mmHg 87%
    14:00 +8°C° 0.5 mm 1 mps 493 mmHg 90%
    15:00 +8°C° 0.5 mm 1 mps 493 mmHg 93%
    16:00 +7°C° 0.5 mm 1 mps 492 mmHg 96%
    17:00 +7°C° 0.4 mm 1 mps 492 mmHg 96%
    18:00 +6°C° 0.4 mm 1 mps 492 mmHg 97%
    19:00 +5°C° 0.4 mm 1 mps 492 mmHg 97%
    20:00 +4°C° 0.2 mm 0 mps 492 mmHg 97%
    21:00 +4°C° 0.2 mm 0 mps 492 mmHg 96%
    22:00 +4°C° 0.2 mm 0 mps 492 mmHg 96%
    23:00 +4°C° 0.1 mm 0 mps 492 mmHg 95%

    24 November, Sunday

    Time Temperature Precipitation Wind Pressure Humidity
    00:00 +3°C° 0.1 mm 0 mps 492 mmHg 95%
    01:00 +4°C° 0.1 mm 1 mps 491 mmHg 94%
    02:00 +3°C° 0 mm 0 mps 491 mmHg 94%
    03:00 +3°C° 0 mm 0 mps 491 mmHg 93%
    04:00 +2°C° 0 mm 0 mps 490 mmHg 92%
    05:00 +3°C° 0 mm 0 mps 491 mmHg 91%
    06:00 +4°C° 0 mm 0 mps 492 mmHg 89%
    07:00 +5°C° 0 mm 0 mps 493 mmHg 87%
    08:00 +7°C° 0 mm 1 mps 494 mmHg 82%
    09:00 +9°C° 0 mm 1 mps 495 mmHg 77%
    10:00 +10°C° 0 mm 2 mps 497 mmHg 72%
    11:00 +9°C° 0.5 mm 2 mps 496 mmHg 78%
    12:00 +9°C° 0.5 mm 2 mps 495 mmHg 83%
    13:00 +9°C° 0.5 mm 1 mps 494 mmHg 89%
    14:00 +9°C° 0.6 mm 1 mps 493 mmHg 91%
    15:00 +8°C° 0.6 mm 1 mps 493 mmHg 93%
    16:00 +8°C° 0.6 mm 1 mps 492 mmHg 96%
    17:00 +7°C° 0.3 mm 1 mps 492 mmHg 96%
    18:00 +6°C° 0.3 mm 1 mps 492 mmHg 97%
    19:00 +6°C° 0.3 mm 1 mps 492 mmHg 97%
    20:00 +5°C° 0.3 mm 1 mps 492 mmHg 96%
    21:00 +5°C° 0.3 mm 1 mps 492 mmHg 95%
    22:00 +5°C° 0.3 mm 1 mps 492 mmHg 94%
    23:00 +4°C° 0 mm 1 mps 491 mmHg 93%

    25 November, Monday

    Time Temperature Precipitation Wind Pressure Humidity
    00:00 +4°C° 0 mm 1 mps 491 mmHg 92%
    01:00 +3°C° 0 mm 1 mps 490 mmHg 91%
    02:00 +3°C° 0 mm 1 mps 490 mmHg 90%
    03:00 +3°C° 0 mm 1 mps 490 mmHg 90%
    04:00 +3°C° 0 mm 1 mps 490 mmHg 89%
    05:00 +4°C° 0 mm 1 mps 490 mmHg 89%
    06:00 +5°C° 0 mm 1 mps 491 mmHg 88%
    07:00 +5°C° 0 mm 1 mps 492 mmHg 87%
    08:00 +7°C° 0 mm 1 mps 493 mmHg 81%
    09:00 +9°C° 0 mm 1 mps 495 mmHg 75%
    10:00 +10°C° 0 mm 2 mps 496 mmHg 70%
    11:00 +10°C° 0.4 mm 2 mps 495 mmHg 74%
    12:00 +9°C° 0.4 mm 2 mps 494 mmHg 78%
    13:00 +9°C° 0.4 mm 2 mps 493 mmHg 83%
    14:00 +9°C° 0.6 mm 2 mps 493 mmHg 86%
    15:00 +9°C° 0.6 mm 1 mps 492 mmHg 90%
    16:00 +8°C° 0.6 mm 1 mps 491 mmHg 93%
    17:00 +8°C° 0.1 mm 1 mps 491 mmHg 94%
    18:00 +7°C° 0.1 mm 1 mps 491 mmHg 95%
    19:00 +6°C° 0.1 mm 1 mps 491 mmHg 96%
    20:00 +6°C° 0.1 mm 1 mps 491 mmHg 95%
    21:00 +5°C° 0.1 mm 1 mps 491 mmHg 95%
    22:00 +5°C° 0.1 mm 1 mps 491 mmHg 94%
    23:00 +5°C° 0.1 mm 1 mps 491 mmHg 94%

    26 November, Tuesday

    Time Temperature Precipitation Wind Pressure Humidity
    00:00 +5°C° 0.1 mm 1 mps 491 mmHg 94%
    01:00 +5°C° 0.1 mm 1 mps 491 mmHg 94%
    02:00 +5°C° 0.1 mm 1 mps 491 mmHg 94%
    03:00 +5°C° 0.1 mm 1 mps 491 mmHg 94%
    04:00 +5°C° 0.1 mm 1 mps 491 mmHg 94%
    05:00 +6°C° 0.1 mm 1 mps 491 mmHg 94%
    06:00 +6°C° 0.1 mm 1 mps 492 mmHg 93%
    07:00 +6°C° 0.1 mm 1 mps 493 mmHg 93%
    08:00 +7°C° 0.1 mm 1 mps 493 mmHg 91%
    09:00 +8°C° 0.1 mm 1 mps 494 mmHg 88%
    10:00 +9°C° 0.1 mm 1 mps 495 mmHg 86%
    11:00 +10°C° 0.5 mm 1 mps 494 mmHg 83%
    12:00 +9°C° 0.5 mm 2 mps 494 mmHg 81%
    13:00 +10°C° 0.5 mm 2 mps 494 mmHg 79%
    14:00 +10°C° 0.5 mm 2 mps 493 mmHg 82%
    15:00 +9°C° 0.5 mm 2 mps 493 mmHg 85%
    16:00 +8°C° 0.5 mm 2 mps 492 mmHg 88%
    17:00 +7°C° 0.2 mm 2 mps 492 mmHg 90%
    18:00 +6°C° 0.2 mm 2 mps 491 mmHg 92%
    19:00 +4°C° 0.2 mm 2 mps 491 mmHg 94%
    20:00 +4°C° 0 mm 2 mps 491 mmHg 93%
    21:00 +3°C° 0 mm 2 mps 491 mmHg 91%
    22:00 +3°C° 0 mm 2 mps 491 mmHg 90%
    23:00 +3°C° 0 mm 2 mps 491 mmHg 88%
    Show more